Location: Mesa Vista Observatory
(35.5777°N, 105.6987°W)
Time: 05:32:09
(UTC-06:00)

S-56A Canister/Altair - Visible Passes

Search period start: 26 September 2020 00:00
Search period end: 06 October 2020 00:00
Orbit: 633 x 2499 km, 38.9° (Epoch: 25 September)

Date Brightness Start Highest point End Pass type
(mag) Time Alt. Az. Time Alt. Az. Time Alt. Az.
26 Sep 9.0 20:25:33 10° WNW 20:38:15 90° S 20:42:31 37° ESE visible
26 Sep 10.0 22:33:26 10° WNW 22:39:56 32° WSW 22:39:56 32° WSW visible
27 Sep 9.3 19:51:39 10° WNW 20:05:03 86° NNE 20:11:34 23° ESE visible
27 Sep 9.4 21:59:35 10° WNW 22:08:59 44° SW 22:08:59 44° SW visible
28 Sep 9.5 19:17:45 10° WNW 19:31:45 83° NNE 19:40:39 13° ESE visible
28 Sep 9.1 21:25:43 10° WNW 21:36:54 52° SW 21:38:04 50° SSW visible
29 Sep 9.3 20:51:50 10° WNW 21:03:58 60° SSW 21:07:13 41° SSE visible
29 Sep 10.8 23:01:37 10° W 23:04:39 15° WSW 23:04:39 15° WSW visible
30 Sep 9.4 20:17:57 10° WNW 20:30:55 67° SSW 20:36:24 28° SE visible
30 Sep 10.5 22:27:04 10° W 22:33:51 21° SW 22:33:51 21° SW visible
01 Oct 9.5 19:44:03 10° WNW 19:57:46 73° SSW 20:05:40 17° SE visible
01 Oct 10.2 21:52:46 10° W 22:01:34 26° SW 22:03:06 25° SW visible
02 Oct 9.7 19:10:10 10° WNW 19:24:29 79° SSW 19:34:32 10° ESE visible
02 Oct 10.1 21:18:36 10° WNW 21:28:48 32° SW 21:32:26 25° SSW visible
03 Oct 10.2 20:44:30 10° WNW 20:55:56 38° SW 21:01:51 20° S visible
04 Oct 10.2 20:10:28 10° WNW 20:22:57 44° SW 20:31:20 12° SSE visible
05 Oct 10.2 19:36:30 10° WNW 19:49:51 51° SW 19:59:33 10° SSE visible
05 Oct 11.0 21:48:15 10° W 21:52:53 13° WSW 21:56:58 10° SSW visible
